Location: Vinland
(47.7731°N, 122.6974°W)
Time: 20:04:05
(UTC+00:00)

Vanguard 1 Rocket - Pass Details

Date: 29 March 2023
Orbit: 655 x 4220 km, 34.3° (Epoch: 05 June)

Event Time Altitude Azimuth Distance (km) Brightness Sun altitude
Rises 03:35:07 0° 201° (SSW) 8,236 12.3 -10.7°
Reaches altitude 10° 03:42:13 10° 191° (SSW) 7,383 11.9 -11.8°
Maximum altitude 04:01:24 28° 144° (SE) 5,654 10.9 -14.9°
Enters shadow 04:12:00 19° 108° (ESE) 5,653 10.7 -16.5°
